Total_Precipitation_Accumulation
0.00 0.00 0.00 0.00 0.00 0.00 0.00 0.01 0.02 0.05 0.10 0.08 0.09 0.12 0.16 0.21 0.27 0.59 0.37 0.16 0.08 0.03 0.01 0.01 0.02 0.03 0.05 0.05 0.06 0.07 0.06 0.06 0.08 0.09 0.09 0.10 0.09 0.09 0.08 0.09 0.11 0.16 0.19 0.18 0.16 0.14 0.15 0.12 0.08
0.00 0.00 0.00 0.00 0.00 0.00 0.01 0.02 0.03 0.04 0.09 0.10 0.09 0.11 0.14 0.16 0.12 0.07 0.07 0.07 0.08 0.03 0.01 0.01 0.02 0.03 0.04 0.04 0.06 0.08 0.08 0.07 0.07 0.08 0.08 0.09 0.08 0.08 0.08 0.09 0.12 0.17 0.22 0.22 0.20 0.17 0.15 0.12 0.07
0.00 0.00 0.00 0.00 0.00 0.00 0.02 0.03 0.03 0.03 0.05 0.07 0.13 0.21 0.22 0.16 0.12 0.08 0.07 0.06 0.08 0.03 0.00 0.01 0.02 0.03 0.04 0.04 0.05 0.08 0.09 0.08 0.08 0.08 0.08 0.09 0.09 0.08 0.09 0.10 0.11 0.13 0.16 0.16 0.12 0.10 0.10 0.10 0.06
0.00 0.00 0.00 0.00 0.00 0.00 0.01 0.03 0.04 0.03 0.04 0.05 0.14 0.28 0.26 0.20 0.16 0.12 0.09 0.08 0.06 0.03 0.01 0.01 0.02 0.04 0.05 0.06 0.07 0.08 0.08 0.09 0.09 0.10 0.12 0.12 0.11 0.10 0.12 0.15 0.15 0.14 0.14 0.12 0.10 0.09 0.08 0.09 0.05
0.00 0.00 0.00 0.00 0.00 0.00 0.01 0.02 0.05 0.04 0.05 0.07 0.12 0.27 0.33 0.31 0.32 0.28 0.13 0.10 0.09 0.06 0.03 0.01 0.02 0.05 0.08 0.09 0.11 0.13 0.13 0.13 0.14 0.16 0.17 0.16 0.14 0.14 0.15 0.16 0.17 0.15 0.15 0.13 0.11 0.12 0.11 0.07 0.03
0.00 0.00 0.00 0.00 0.00 0.00 0.01 0.02 0.05 0.06 0.06 0.06 0.11 0.26 0.44 0.39 0.31 0.38 0.26 0.16 0.10 0.08 0.04 0.02 0.02 0.05 0.11 0.14 0.17 0.19 0.16 0.14 0.15 0.17 0.20 0.16 0.13 0.11 0.11 0.12 0.13 0.14 0.17 0.16 0.11 0.07 0.05 0.03 0.02
0.00 0.00 0.00 0.00 0.01 0.01 0.01 0.02 0.04 0.05 0.06 0.07 0.12 0.30 0.51 0.47 0.40 0.44 0.36 0.17 0.12 0.10 0.06 0.04 0.03 0.05 0.13 0.20 0.18 0.16 0.14 0.14 0.16 0.19 0.21 0.18 0.13 0.09 0.08 0.11 0.12 0.13 0.13 0.09 0.04 0.02 0.01 0.01 0.01
0.00 0.00 0.00 0.00 0.01 0.01 0.02 0.03 0.05 0.08 0.10 0.08 0.11 0.29 0.49 0.53 0.48 0.43 0.36 0.24 0.19 0.18 0.10 0.06 0.07 0.09 0.13 0.14 0.14 0.14 0.14 0.14 0.15 0.17 0.16 0.13 0.09 0.08 0.08 0.08 0.08 0.08 0.09 0.09 0.05 0.02 0.01 0.01 0.01
0.00 0.00 0.00 0.00 0.01 0.01 0.03 0.05 0.05 0.05 0.06 0.08 0.10 0.21 0.35 0.41 0.45 0.43 0.38 0.28 0.24 0.18 0.14 0.10 0.09 0.11 0.11 0.09 0.06 0.08 0.09 0.10 0.09 0.07 0.08 0.07 0.08 0.13 0.13 0.08 0.07 0.10 0.11 0.09 0.04 0.03 0.02 0.02 0.02
0.00 0.00 0.00 0.00 0.01 0.01 0.03 0.04 0.05 0.05 0.04 0.06 0.14 0.19 0.22 0.26 0.39 0.39 0.37 0.31 0.24 0.17 0.13 0.12 0.10 0.08 0.10 0.09 0.09 0.09 0.06 0.06 0.04 0.06 0.04 0.07 0.23 0.32 0.23 0.21 0.15 0.13 0.09 0.05 0.04 0.03 0.03 0.02 0.03
0.00 0.00 0.00 0.00 0.00 0.01 0.01 0.02 0.03 0.05 0.04 0.04 0.15 0.35 0.33 0.27 0.39 0.49 0.40 0.39 0.31 0.24 0.15 0.15 0.13 0.11 0.20 0.22 0.16 0.18 0.13 0.13 0.08 0.15 0.13 0.21 0.32 0.27 0.24 0.25 0.16 0.11 0.08 0.07 0.08 0.06 0.05 0.05 0.07
0.00 0.00 0.00 0.00 0.00 0.00 0.01 0.01 0.01 0.02 0.03 0.04 0.10 0.30 0.45 0.39 0.41 0.44 0.47 0.43 0.38 0.37 0.32 0.26 0.20 0.17 0.22 0.28 0.21 0.21 0.17 0.16 0.16 0.26 0.17 0.26 0.36 0.41 0.45 0.52 0.36 0.26 0.22 0.21 0.17 0.15 0.11 0.12 0.13
0.00 0.00 0.00 0.00 0.00 0.00 0.00 0.00 0.00 0.01 0.02 0.03 0.07 0.16 0.32 0.33 0.39 0.44 0.55 0.58 0.53 0.51 0.53 0.49 0.35 0.32 0.31 0.36 0.33 0.30 0.26 0.23 0.27 0.39 0.31 0.32 0.33 0.46 0.64 0.66 0.71 0.48 0.45 0.40 0.36 0.31 0.31 0.26 0.21
0.00 0.00 0.00 0.00 0.00 0.00 0.00 0.00 0.00 0.00 0.01 0.03 0.05 0.11 0.20 0.26 0.39 0.54 0.60 0.63 0.67 0.81 0.78 0.71 0.62 0.54 0.46 0.39 0.39 0.34 0.30 0.34 0.35 0.44 0.43 0.41 0.46 0.64 0.86 0.90 0.89 0.69 0.66 0.69 0.69 0.64 0.50 0.41 0.40
0.00 0.00 0.00 0.00 0.00 0.00 0.00 0.00 0.00 0.00 0.00 0.01 0.04 0.08 0.16 0.28 0.35 0.51 0.58 0.62 0.72 0.84 1.01 1.05 0.95 0.77 0.64 0.53 0.51 0.58 0.51 0.52 0.54 0.67 0.69 0.63 0.70 0.92 0.92 1.11 1.08 0.91 0.86 0.84 0.76 0.79 0.77 0.66 0.59
0.00 0.00 0.00 0.01 0.00 0.00 0.00 0.00 0.00 0.00 0.00 0.01 0.05 0.09 0.11 0.21 0.31 0.38 0.47 0.58 0.91 0.99 1.05 1.10 0.95 0.77 0.74 0.75 0.77 0.80 0.88 0.99 0.98 1.01 1.18 1.21 1.16 1.24 1.20 1.18 1.19 1.10 1.09 1.22 1.20 1.05 1.00 0.96 0.84
0.00 0.00 0.00 0.01 0.00 0.00 0.00 0.01 0.01 0.00 0.00 0.02 0.03 0.07 0.09 0.14 0.26 0.35 0.50 0.63 0.79 0.90 1.07 1.13 1.02 0.88 0.84 0.94 1.15 1.18 1.19 1.42 1.56 1.49 1.67 1.72 1.62 1.61 1.64 1.63 1.64 1.52 1.54 1.46 1.32 1.30 1.18 1.18 1.06
0.00 0.00 0.01 0.01 0.00 0.00 0.00 0.01 0.02 0.02 0.01 0.02 0.03 0.06 0.10 0.15 0.27 0.46 0.56 0.70 0.87 0.97 1.06 1.16 1.19 1.21 1.20 1.25 1.41 1.60 1.66 1.75 2.00 2.05 2.08 2.18 2.25 2.27 2.27 2.17 2.08 1.98 1.84 1.69 1.56 1.47 1.28 1.15 1.02
0.00 0.00 0.00 0.01 0.00 0.00 0.01 0.03 0.04 0.04 0.04 0.05 0.08 0.12 0.18 0.26 0.37 0.57 0.69 0.92 1.12 1.24 1.37 1.38 1.44 1.56 1.69 1.88 1.88 1.95 2.12 2.38 2.63 2.79 2.84 2.86 2.79 2.74 2.57 2.43 2.33 2.14 1.95 1.77 1.61 1.41 1.25 1.07 0.93
0.00 0.00 0.00 0.01 0.01 0.01 0.02 0.06 0.08 0.10 0.10 0.13 0.20 0.20 0.21 0.30 0.42 0.66 0.85 1.17 1.41 1.53 1.62 1.70 1.77 2.05 2.42 2.75 3.09 3.37 3.47 3.42 3.54 3.62 3.64 3.51 3.34 3.17 2.93 2.82 2.62 2.31 2.09 1.85 1.61 1.40 1.28 1.11 0.96
0.00 0.00 0.01 0.01 0.02 0.03 0.05 0.14 0.17 0.17 0.20 0.23 0.26 0.27 0.32 0.43 0.57 0.71 0.92 1.23 1.45 1.59 1.76 1.88 2.12 2.73 3.45 3.71 3.94 4.40 4.62 4.38 4.17 4.01 3.91 3.83 3.76 3.65 3.36 3.19 2.90 2.57 2.22 1.91 1.63 1.39 1.27 1.18 1.05
0.00 0.00 0.00 0.01 0.02 0.05 0.06 0.17 0.27 0.27 0.29 0.26 0.29 0.33 0.40 0.51 0.66 0.79 0.94 1.21 1.52 1.82 1.90 2.06 2.55 3.27 3.89 4.28 4.73 5.18 5.31 5.30 5.20 4.75 4.24 3.80 3.47 3.23 3.03 2.81 2.53 2.23 1.93 1.69 1.45 1.20 1.07 1.08 0.99
0.00 0.00 0.00 0.01 0.01 0.04 0.06 0.18 0.39 0.45 0.47 0.45 0.43 0.42 0.41 0.47 0.66 0.81 0.94 1.15 1.32 1.59 1.96 2.21 2.74 3.40 4.05 4.69 5.26 5.58 5.76 5.66 5.26 4.51 3.75 3.31 3.04 2.74 2.48 2.23 1.95 1.69 1.48 1.30 1.16 1.02 0.90 0.84 0.77
0.00 0.00 0.00 0.01 0.02 0.06 0.06 0.15 0.46 0.72 0.79 0.72 0.62 0.63 0.58 0.47 0.53 0.68 0.87 0.97 1.23 1.49 1.78 2.18 2.48 3.09 3.73 4.27 4.73 4.84 4.95 4.85 4.41 3.94 3.42 3.05 2.64 2.15 1.77 1.54 1.32 1.13 0.98 0.88 0.80 0.73 0.65 0.59 0.52
0.00 0.01 0.03 0.05 0.06 0.10 0.08 0.20 0.56 0.88 0.87 0.72 0.64 0.64 0.62 0.48 0.48 0.70 0.95 0.89 1.10 1.43 1.77 2.12 2.46 2.86 3.33 3.80 4.21 4.41 4.49 4.27 3.80 3.36 2.95 2.49 2.07 1.69 1.36 1.12 0.97 0.84 0.74 0.64 0.56 0.49 0.43 0.37 0.32
0.00 0.01 0.06 0.09 0.10 0.14 0.18 0.39 0.67 0.83 0.79 0.65 0.60 0.55 0.52 0.49 0.52 0.65 0.82 0.90 1.12 1.33 1.62 1.96 2.27 2.57 2.75 2.93 3.20 3.34 3.43 3.28 2.96 2.47 2.03 1.74 1.51 1.28 1.08 0.92 0.78 0.62 0.47 0.40 0.35 0.31 0.26 0.22 0.18
0.01 0.01 0.02 0.03 0.05 0.16 0.39 0.57 0.75 0.77 0.67 0.64 0.59 0.53 0.53 0.54 0.55 0.63 0.74 0.85 1.07 1.35 1.61 1.86 1.99 2.13 2.27 2.34 2.36 2.35 2.38 2.25 2.02 1.78 1.51 1.27 1.04 0.84 0.70 0.60 0.51 0.41 0.33 0.28 0.24 0.21 0.18 0.15 0.13
0.01 0.02 0.03 0.04 0.09 0.20 0.45 0.73 0.93 1.05 1.00 0.85 0.71 0.62 0.56 0.57 0.58 0.61 0.68 0.75 0.84 0.96 1.23 1.45 1.54 1.62 1.66 1.67 1.68 1.66 1.59 1.51 1.42 1.29 1.11 0.90 0.75 0.60 0.50 0.41 0.34 0.31 0.26 0.23 0.18 0.14 0.12 0.10 0.10
0.02 0.03 0.04 0.06 0.07 0.18 0.43 0.90 1.16 1.32 1.28 1.07 0.86 0.74 0.68 0.66 0.63 0.61 0.63 0.63 0.68 0.72 0.87 1.05 1.17 1.20 1.26 1.29 1.24 1.15 1.13 1.07 1.04 1.01 0.94 0.80 0.66 0.54 0.46 0.41 0.36 0.31 0.26 0.21 0.17 0.15 0.13 0.12 0.11
0.03 0.04 0.05 0.10 0.11 0.16 0.41 1.14 1.59 1.65 1.46 1.15 0.96 0.87 0.85 0.77 0.68 0.62 0.57 0.53 0.55 0.59 0.64 0.72 0.78 0.79 0.84 0.86 0.84 0.84 0.84 0.84 0.82 0.76 0.68 0.55 0.46 0.39 0.33 0.28 0.26 0.25 0.22 0.18 0.15 0.14 0.12 0.10 0.09